    Orbital elements:
    2018 GG                                                  Earth MOID = 0.0056 AU
    Epoch 2018 Mar. 23.0 TT = JDT 2458200.5                 MPC
    M 342.75367              (2000.0)            P               Q
    n   0.30810270     Peri.  229.25132     -0.30672701     +0.95054567
    a   2.1710628      Node    23.02591     -0.83134394     -0.24259186
    e   0.6054486      Incl.    7.16702     -0.46344989     -0.19393845
    P   3.20           H   24.6           G   0.15           U   6
    Residuals in seconds of arc
    180406 703  0.1+  1.0+    180406 113  0.6+  1.0-    180406 104  0.7+  0.2-
    180406 703  1.7+  1.2-    180406 A17  0.5+  0.4-    180406 595  1.3+  0.0
    180406 703  1.2+  1.1+    180406 198  0.6+  0.2+    180406 104  0.4+  0.3-
    180406 I52  0.2+  0.3+    180406 113  0.6+  0.1+    180406 104  0.4+  0.1-
    180406 I52  0.0   0.1-    180406 198  0.5+  0.2-    180406 K61  0.0   0.2+
    180406 I52  0.1-  0.2+    180406 151  0.9+  0.9-    180406 K61  0.2+  0.2-
    180406 I52  0.0   0.1-    180406 151  0.4-  1.2-    180406 K61  0.3+  0.3-
    180406 246  0.6+  0.4+    180406 151  0.1-  0.7-    180406 K61  0.2+  0.2-
    180406 246  1.6+  1.0-    180406 L01  0.4+  0.1+    180406 K61  0.3+  0.1-
    180406 246  0.9+  0.6-    180406 L01  0.5+  0.1+    180406 C47  0.3+  0.0
    180406 246  0.3+  1.6-    180406 151  0.9-  1.8+    180406 C47  0.4+  0.0
    180406 246  1.7-  1.8-    180406 L01  0.5+  0.2-    180406 K38  0.3+  0.9-
    180406 246  1.2+  0.5-    180406 L01  0.4+  0.2+    180406 C47  0.5+  0.4+
    180406 106  1.6-  1.4+    180406 A17  0.2+  0.2+    180407 K38  0.1-  1.6-
    180406 106  1.8-  1.2+    180406 587  0.3+  0.3+    180407 K38  0.1+  1.7-
    180406 106  2.1-  1.6+    180406 587  0.3+  0.2+    180407 K65  0.3+  0.0
    180406 C43  1.3+  0.2+    180406 587  0.1+  0.1+    180407 K65  0.1+  0.5+
    180406 C43  0.9+  0.6+    180406 A17  0.1-  0.7-    180407 246  1.0+  0.5+
    180406 198  0.6+  0.2-    180406 587  0.0   0.0     180407 246  0.4+  0.0
    180406 C43  1.6+  0.1+    180406 J95  0.6+  0.6+    180407 246  1.2+  0.1+
    180406 198  0.5+  0.2-    180406 J95  0.3+  0.3-    180407 246  0.3-  0.3+
    180406 113  0.7+  0.1-    180406 J95  0.5+  0.0     180407 246  0.4+  0.9-
    180406 198  0.5+  0.0     180406 595  0.5+  0.1-    180407 246  0.4+  0.8+
    180406 A17  0.3-  0.6+    180406 595  0.0   0.6+
    180406 113  0.1+  0.7-    180406 595  0.5+  0.4+
    
    Ephemeris:
    2018 GG                  a,e,i = 2.17, 0.61, 7                   q = 0.8566
    Date    TT    R. A. (2000) Decl.     Delta      r     Elong.  Phase     V
    2018 03 08    12 18 26.5 +16 40 02   0.3028  1.2814   160.1    15.3    23.4
    ...
    2018 03 23    12 14 04.5 +19 29 03   0.1639  1.1516   159.6    17.5    21.9
    ...
    2018 03 31    12 04 33.5 +22 08 38   0.09699 1.0860   152.7    24.9    20.9
    ...
    2018 04 06    11 41 02.8 +27 14 48   0.04902 1.0394   141.6    36.7    19.6
    2018 04 07    11 31 32.1 +29 04 29   0.04126 1.0320   138.2    40.3    19.3
    2018 04 08    11 17 07.9 +31 38 09   0.03366 1.0246   133.4    45.2    19.0
    ...
    2018 04 14    02 02 48.0 +08 46 15   0.02061 0.9825     8.6   171.2    34.5
    ...
    2018 04 22    00 49 44.7 -11 12 35   0.08251 0.9336    28.7   148.9    27.3
    ...
    2018 05 07    00 42 03.9 -13 02 36   0.2089  0.8715    44.2   126.1    26.2
    
    A. U. Tomatic                (C) Copyright 2018 MPC           M.P.E.C. 2018-G28
    

    Read MPEC 2018-G27 Read MPEC 2018-G29


    MPEC number:

    Enter an MPEC number in one of the following forms:

    • 1997-B01 (the full form)
    • J97B01 (the packed version of the full form)
    • B01 (the abbreviated form)